Stations météo

réclame
Mon MeteoGroup
Valdepena, Espagne (8351): Température de l'air & dewpoint: 15.07.2018 21:00:00 - 21.07.2018 21:00:00 (CEST)Valdepena, Espagne (8351): Vitesse du vent & gusts: 15.07.2018 21:00:00 - 21.07.2018 21:00:00 (CEST)Valdepena, Espagne (8351): Direction du vent: 15.07.2018 21:00:00 - 21.07.2018 21:00:00 (CEST)Valdepena, Espagne (8351): reduced air pressure: 15.07.2018 21:00:00 - 21.07.2018 21:00:00 (CEST)Valdepena, Espagne (8351): visibility: 15.07.2018 21:00:00 - 21.07.2018 21:00:00 (CEST)Valdepena, Espagne (8351): Ensoleillement: 15.07.2018 21:00:00 - 21.07.2018 21:00:00 (CEST)Valdepena, Espagne (8351): Quantités de précipitations: 15.07.2018 21:00:00 - 21.07.2018 21:00:00 (CEST)
Date & Time tt [°C] td [°C] ff [km/h] ff [knt] fx [km/h] fx [knt] dd ppp [hPa] vv [km] sd [min] rr [mm]
21.07.2018 21:00:00 31,0 2,3 4 2 21 11 WSW 1007,9 4,4 8 0,0
21.07.2018 20:00:00 32,1 1,3 5 3 25 14 WSW 1007,3 4,3 0 -
21.07.2018 19:00:00 32,1 0,2 6 3 23 12 SW 1007,6 4,2 14 0,0
21.07.2018 18:00:00 32,1 3,9 9 5 26 14 SSW 1007,9 4,6 52 0,0
21.07.2018 17:00:00 32,4 3,4 8 4 30 16 SSW 1008,2 4,0 60 0,0
21.07.2018 16:00:00 31,9 4,6 8 4 27 15 SW 1009,0 4,4 60 0,0
21.07.2018 15:00:00 31,2 4,8 11 6 28 15 S 1009,8 4,4 60 0,0
21.07.2018 14:00:00 30,1 6,1 5 3 18 10 SW 1010,8 4,3 60 -
21.07.2018 13:00:00 29,1 6,4 4 2 23 12 NNW 1011,5 4,5 60 0,0
21.07.2018 12:00:00 27,7 7,0 5 3 16 9 S 1012,1 3,3 60 0,0
21.07.2018 11:00:00 26,1 8,5 3 1 9 5 S 1012,6 4,2 60 0,0
21.07.2018 10:00:00 23,3 8,9 2 1 7 4 SW 1013,2 4,3 8 0,0
21.07.2018 09:00:00 20,3 8,7 3 2 7 4 S 1013,9 4,4 0 0,0
21.07.2018 08:00:00 18,5 8,4 1 1 5 3 ESE 1014,1 4,3 13 -
21.07.2018 07:00:00 18,1 7,3 1 1 8 4 SSE 1014,0 4,2 0 0,0
21.07.2018 06:00:00 18,8 7,6 3 2 6 3 E 1013,4 4,5 0 0,0
21.07.2018 05:00:00 19,8 7,1 3 1 6 4 SSE 1013,0 4,4 0 0,0
21.07.2018 04:00:00 20,4 6,7 1 1 6 4 S 1013,0 4,4 0 0,0
21.07.2018 03:00:00 21,4 6,1 2 1 7 4 SW 1012,9 4,3 0 0,0
21.07.2018 02:00:00 22,0 5,0 4 2 12 6 SSW 1013,0 4,3 0 -
21.07.2018 01:00:00 22,5 4,1 6 3 9 5 SSE 1013,0 4,4 0 0,0
21.07.2018 00:00:00 23,9 3,8 4 2 10 5 SSE 1012,4 4,5 0 0,0
20.07.2018 23:00:00 25,6 2,9 2 1 11 6 WSW 1011,7 4,2 0 0,0
20.07.2018 22:00:00 27,2 1,5 5 3 25 14 W 1010,5 4,4 0 0,0
20.07.2018 21:00:00 29,2 3,9 7 4 24 13 W 1009,4 4,4 8 0,0
20.07.2018 20:00:00 30,4 3,4 7 4 29 16 WSW 1008,6 4,4 0 -
20.07.2018 19:00:00 31,2 2,5 8 4 32 17 WSW 1008,4 4,2 18 0,0
20.07.2018 18:00:00 31,5 2,7 9 5 39 21 WSW 1008,6 4,1 60 0,0
20.07.2018 17:00:00 32,0 2,1 10 6 38 20 WSW 1008,8 4,4 60 0,0
20.07.2018 16:00:00 31,9 2,1 6 3 26 14 W 1009,3 4,4 60 0,0
20.07.2018 15:00:00 31,3 2,5 9 5 27 15 SW 1009,8 4,1 60 0,0
20.07.2018 14:00:00 31,1 2,3 8 5 27 15 SSW 1010,5 4,2 60 -
20.07.2018 13:00:00 30,0 3,0 11 6 26 14 S 1011,1 4,1 60 0,0
20.07.2018 12:00:00 28,1 3,8 8 4 18 10 SSW 1012,0 3,9 60 0,0
20.07.2018 11:00:00 26,1 5,1 6 4 13 7 SSE 1012,8 4,3 60 0,0
20.07.2018 10:00:00 23,5 4,5 4 2 8 4 S 1013,3 4,8 14 0,0
20.07.2018 09:00:00 19,4 3,0 4 2 8 4 N 1014,4 3,8 0 0,0
20.07.2018 08:00:00 17,9 1,9 3 1 6 4 E 1014,7 4,2 0 -
20.07.2018 07:00:00 18,1 1,1 3 2 5 3 NNE 1014,5 4,3 0 0,0
20.07.2018 06:00:00 19,2 0,6 2 1 6 4 E 1014,1 4,4 0 0,0
20.07.2018 05:00:00 20,0 0,4 4 2 7 4 SE 1014,1 4,4 0 0,0
20.07.2018 04:00:00 20,4 -1,4 3 2 8 5 ESE 1014,0 4,4 0 0,0
20.07.2018 03:00:00 21,4 -2,5 3 2 6 3 ESE 1013,8 4,4 0 0,0
20.07.2018 02:00:00 22,4 -1,7 1 1 6 3 SSE 1013,9 4,5 0 -
20.07.2018 01:00:00 23,5 0,0 4 2 10 5 SSE 1013,8 4,4 0 0,0
20.07.2018 00:00:00 25,4 -1,4 5 3 14 8 SE 1013,2 4,5 0 0,0
19.07.2018 23:00:00 26,6 -1,2 6 4 15 8 SSE 1012,4 4,6 0 0,0
19.07.2018 22:00:00 28,9 -1,2 8 4 26 14 S 1010,8 4,5 0 0,0
19.07.2018 21:00:00 32,3 -0,7 9 5 27 14 S 1009,5 4,5 9 0,0
19.07.2018 20:00:00 33,4 -1,2 13 7 33 18 S 1009,0 4,4 0 -
19.07.2018 19:00:00 33,9 -2,0 13 7 - - SSW 1008,9 4,4 - -
19.07.2018 18:00:00 34,1 -2,0 11 6 40 22 SSW 1009,3 4,5 60 0,0
19.07.2018 17:00:00 34,3 -0,5 12 7 33 18 S 1009,7 4,6 60 0,0
19.07.2018 16:00:00 33,9 0,4 12 7 34 18 S 1010,1 4,3 60 0,0
19.07.2018 15:00:00 33,7 0,4 10 5 26 14 S 1010,5 4,7 60 0,0
19.07.2018 14:00:00 32,7 0,6 12 7 25 13 S 1011,2 4,5 60 -
19.07.2018 13:00:00 31,2 5,6 11 6 25 14 S 1012,0 4,3 60 0,0
19.07.2018 12:00:00 29,4 5,5 8 4 18 10 S 1012,8 4,4 60 0,0
19.07.2018 11:00:00 27,7 5,9 6 3 15 8 S 1013,2 4,3 60 0,0
19.07.2018 10:00:00 24,9 5,6 4 2 8 5 SE 1013,9 4,6 11 0,0
19.07.2018 09:00:00 20,5 4,1 2 1 8 4 N 1015,1 4,3 0 0,0
19.07.2018 08:00:00 17,8 2,9 2 1 6 4 N 1015,8 4,3 15 -
19.07.2018 07:00:00 17,1 1,9 4 2 6 4 N 1015,8 4,3 0 0,0
19.07.2018 06:00:00 17,6 1,1 1 1 8 4 ENE 1015,4 4,4 0 0,0
19.07.2018 05:00:00 18,3 1,3 2 1 8 5 N 1015,0 4,3 0 0,0
19.07.2018 04:00:00 19,5 1,1 4 2 9 5 N 1014,6 4,4 0 0,0
19.07.2018 03:00:00 20,9 0,6 3 2 8 5 N 1014,2 4,5 0 0,0
19.07.2018 02:00:00 22,4 0,2 1 1 8 5 NE 1013,7 4,4 0 -
19.07.2018 01:00:00 23,8 0,9 4 2 10 5 SSE 1013,6 4,5 0 0,0
19.07.2018 00:00:00 25,1 0,6 5 3 14 8 SSE 1013,0 4,4 0 0,0
18.07.2018 23:00:00 26,5 1,1 6 3 13 7 SSE 1012,4 4,5 0 0,0
18.07.2018 22:00:00 28,7 -1,4 6 3 15 8 SSE 1011,1 4,5 0 0,0
18.07.2018 21:00:00 31,9 -1,0 9 5 21 11 S 1009,9 4,4 7 0,0
18.07.2018 20:00:00 32,8 -2,7 10 5 26 14 SSW 1009,5 4,4 0 -
18.07.2018 19:00:00 33,4 -1,2 10 5 24 13 SSW 1009,3 4,2 14 0,0
18.07.2018 18:00:00 33,3 -1,2 9 5 28 15 SSW 1009,5 4,3 60 0,0
18.07.2018 17:00:00 33,7 -1,0 10 5 33 18 SSW 1009,6 4,5 60 0,0
18.07.2018 16:00:00 33,2 0,0 9 5 29 16 S 1010,1 4,3 60 0,0
18.07.2018 15:00:00 32,8 0,9 9 5 23 12 S 1010,4 4,6 60 0,0
18.07.2018 14:00:00 31,5 3,4 6 3 20 11 W 1011,1 4,4 60 -
18.07.2018 13:00:00 30,1 3,2 13 7 23 12 S 1012,2 4,2 60 0,0
18.07.2018 12:00:00 29,1 5,1 5 3 20 11 SSW 1012,7 4,5 60 0,0
18.07.2018 11:00:00 27,6 6,4 6 3 18 10 SSW 1013,1 4,3 60 0,0
18.07.2018 10:00:00 25,1 5,3 9 5 17 9 S 1013,8 4,3 18 0,0
18.07.2018 09:00:00 22,4 4,5 5 3 15 8 SE 1014,1 4,4 0 0,0
18.07.2018 08:00:00 21,3 4,3 5 3 13 7 SE 1014,0 4,2 11 -
18.07.2018 07:00:00 21,1 3,8 4 2 18 10 SSE 1013,5 4,3 0 0,0
18.07.2018 06:00:00 21,9 4,5 6 3 15 8 S 1012,9 4,4 0 0,0
18.07.2018 05:00:00 22,8 3,4 3 2 17 9 SE 1012,4 4,5 0 0,0
18.07.2018 04:00:00 23,5 1,1 5 3 16 9 S 1011,9 4,4 0 0,0
18.07.2018 03:00:00 24,4 -0,7 8 4 15 8 SSE 1011,5 4,4 0 0,0
18.07.2018 02:00:00 24,6 3,2 2 1 8 4 SE 1011,7 4,5 0 -
18.07.2018 01:00:00 26,0 2,7 3 2 9 5 ESE 1011,1 4,4 0 0,0
18.07.2018 00:00:00 27,0 2,1 6 3 10 6 SSE 1010,4 4,3 0 0,0
17.07.2018 23:00:00 28,2 1,7 5 3 9 5 SSE 1010,1 4,4 0 0,0
17.07.2018 22:00:00 31,2 0,4 5 3 19 10 SSW 1008,8 4,4 0 0,0
17.07.2018 21:00:00 33,6 -1,0 11 6 24 13 SSW 1007,9 4,4 3 0,0
17.07.2018 20:00:00 34,5 -1,4 9 5 26 14 S 1007,7 4,2 0 -
17.07.2018 19:00:00 34,7 -2,7 9 5 24 13 S 1007,9 4,4 13 0,0
17.07.2018 18:00:00 34,7 -2,7 11 6 26 14 S 1008,5 4,5 60 0,0
17.07.2018 17:00:00 35,2 -4,2 11 6 25 14 S 1009,0 4,6 60 0,0
17.07.2018 16:00:00 34,7 -2,7 9 5 29 15 SE 1009,7 4,2 60 0,0
17.07.2018 15:00:00 34,1 -0,5 9 5 25 13 S 1010,5 4,7 60 0,0
17.07.2018 14:00:00 32,9 -0,3 6 3 25 14 SSW 1011,4 4,7 60 -
17.07.2018 13:00:00 31,5 0,9 13 7 25 13 S 1012,3 5 60 0,0
17.07.2018 12:00:00 30,6 3,6 5 3 16 9 SE 1012,7 4,3 60 0,0
17.07.2018 11:00:00 28,4 5,3 4 2 11 6 SSE 1013,4 4,3 60 0,0
17.07.2018 10:00:00 24,2 5,5 5 3 14 8 NNE 1014,9 4,1 19 0,0
17.07.2018 09:00:00 20,0 5,6 4 2 12 6 N 1016,1 3,9 0 0,0
17.07.2018 08:00:00 18,2 4,6 4 2 11 6 NE 1016,7 4,4 15 -
17.07.2018 07:00:00 16,8 3,8 3 2 7 4 NNE 1017,0 4,4 0 0,0
17.07.2018 06:00:00 17,4 3,6 4 2 11 6 NNE 1016,7 4,4 0 0,0
17.07.2018 05:00:00 17,4 3,2 3 1 7 4 E 1016,7 4,3 0 0,0
17.07.2018 04:00:00 19,1 3,2 3 1 10 5 NE 1016,5 4,3 0 0,0
17.07.2018 03:00:00 19,6 3,2 2 1 6 4 N 1016,7 4,3 0 0,0
17.07.2018 02:00:00 21,6 3,2 2 1 15 8 W 1016,4 4,3 0 -
17.07.2018 01:00:00 22,7 2,7 5 3 11 6 NE 1016,2 4,4 0 0,0
17.07.2018 00:00:00 23,5 3,9 1 1 6 3 W 1016,0 4,3 0 0,0
16.07.2018 23:00:00 25,4 3,9 1 1 5 3 NNE 1015,2 4,2 0 0,0
16.07.2018 22:00:00 27,5 2,5 2 1 8 5 WNW 1014,3 4,2 0 0,0
16.07.2018 21:00:00 29,3 3,2 2 1 16 9 W 1013,7 4,4 10 0,0
16.07.2018 20:00:00 29,4 2,7 4 2 16 9 WSW 1013,6 4,4 0 -
16.07.2018 19:00:00 29,5 3,4 6 3 19 10 WSW 1013,5 4,3 12 0,0
16.07.2018 18:00:00 28,9 2,9 6 4 23 12 W 1014,1 4,2 60 0,0
16.07.2018 17:00:00 28,7 3,6 5 3 25 13 W 1014,5 4,8 60 0,0
16.07.2018 16:00:00 28,1 3,8 7 4 23 12 W 1014,9 4,2 60 0,0
16.07.2018 15:00:00 27,6 3,2 6 4 27 15 SW 1015,5 4,2 60 0,0
16.07.2018 14:00:00 26,3 5,3 7 4 23 12 WNW 1016,3 4,0 60 -
16.07.2018 13:00:00 25,2 6,8 5 3 17 9 SSW 1016,8 4,2 60 0,0
16.07.2018 12:00:00 23,9 8,3 5 3 18 10 SW 1017,3 4,7 60 0,0
16.07.2018 11:00:00 21,7 9,9 8 4 21 11 SW 1017,8 4,3 60 0,0
16.07.2018 10:00:00 19,8 10,8 5 3 18 10 SW 1018,6 4,3 21 0,0
16.07.2018 09:00:00 18,0 11,3 7 4 13 7 SSW 1018,6 4,2 0 0,0
16.07.2018 08:00:00 16,4 10,0 7 4 12 6 SSE 1018,9 4,3 14 -
16.07.2018 07:00:00 16,8 9,9 7 4 18 10 S 1018,5 4,3 0 0,0
16.07.2018 06:00:00 17,3 9,4 8 4 17 9 SW 1017,9 4,4 0 0,0
16.07.2018 05:00:00 17,5 8,7 7 4 16 9 SW 1018,0 4,5 0 0,0
16.07.2018 04:00:00 18,4 7,8 5 3 15 8 SW 1017,8 4,4 0 0,0
16.07.2018 03:00:00 19,3 7,1 4 2 16 9 SW 1017,7 4,5 0 0,0
16.07.2018 02:00:00 19,6 6,4 5 3 10 5 S 1017,8 4,4 0 -
16.07.2018 01:00:00 20,9 6,4 5 3 19 11 SW 1017,0 4,5 0 0,0
16.07.2018 00:00:00 21,9 7,3 5 3 22 12 WSW 1016,3 4,4 0 0,0
15.07.2018 23:00:00 23,3 7,8 5 3 21 11 WSW 1015,3 4,4 0 0,0
15.07.2018 22:00:00 25,1 6,2 5 3 21 12 SW 1013,7 4,4 0 0,0
15.07.2018 21:00:00 26,7 5,6 5 3 24 13 WSW 1012,5 4,2 2 0,0

tt = Température de l'air
td = dewpoint
ff = Vitesse du vent
fx = gusts
dd = Direction du vent
ppp = reduced air pressure
vv = visibility
sd = Ensoleillement
rr = Quantités de précipitations

stations d'obs. à proximité